Location: Newark
(41.9831°N, 91.6686°W)
Time: 05:07:15
(UTC+00:00)

OTV 5 (USA 277) - Visible Passes

Search period start: 24 October 2019 00:00
Search period end: 03 November 2019 00:00
Orbit: 310 x 324 km, 54.5° (Epoch: 17 October)

Date Brightness Start Highest point End Pass type
(mag) Time Alt. Az. Time Alt. Az. Time Alt. Az.
28 Oct ? 00:25:55 10° S 00:27:43 23° SSE 00:27:43 23° SSE visible
29 Oct ? 00:39:58 10° SW 00:42:19 61° SSW 00:42:19 61° SSW visible
30 Oct ? 00:54:42 10° WSW 00:56:47 33° WNW 00:56:47 33° WNW visible
30 Oct ? 23:34:56 10° SSW 23:37:33 43° SE 23:40:10 10° ENE visible
31 Oct ? 01:10:00 10° WNW 01:11:08 16° NW 01:11:08 16° NW visible
31 Oct ? 23:49:22 10° WSW 23:52:03 60° NW 23:54:30 12° NE visible
02 Nov ? 00:04:23 10° W 00:06:43 25° NNW 00:08:40 13° NNE visible
